Location: La Pernelle
(49.6188°N, 1.2999°W)
Time: 09:12:37
(UTC+00:00)

Lacrosse 5 rocket - Pass Details

Date: 12 June 2021
Orbit: 459 x 634 km, 57.0° (Epoch: 26 July)

Event Time Altitude Azimuth Distance (km) Brightness Sun altitude
Exits shadow 22:56:58 22° 114° (ESE) 1,070 2.4 -15.6°
Drops below altitude 10° 22:59:10 10° 78° (ENE) 1,609 3.7 -15.7°
Sets 23:01:35 0° 63° (ENE) 2,487 4.8 -15.8°
